Year,Month,Day,Hour,Minute,Value (Times are PST for temperature in C)
2012,05,28,00,00,9.70
2012,05,28,00,01,9.70
2012,05,28,00,02,9.60
2012,05,28,00,03,9.60
2012,05,28,00,04,9.60
2012,05,28,00,05,9.60
2012,05,28,00,06,9.60
2012,05,28,00,07,9.60
2012,05,28,00,08,9.60
2012,05,28,00,09,9.60
2012,05,28,00,10,9.50
2012,05,28,00,11,9.60
2012,05,28,00,12,9.50
2012,05,28,00,13,9.50
2012,05,28,00,14,9.50
2012,05,28,00,15,9.40
2012,05,28,00,16,9.40
2012,05,28,00,17,9.40
2012,05,28,00,18,9.40
2012,05,28,00,19,9.40
2012,05,28,00,20,9.30
2012,05,28,00,21,9.30
2012,05,28,00,22,9.30
2012,05,28,00,23,9.30
2012,05,28,00,24,9.30
2012,05,28,00,25,9.30
2012,05,28,00,26,9.30
2012,05,28,00,27,9.30
2012,05,28,00,28,9.30
2012,05,28,00,29,9.30
2012,05,28,00,30,9.30
2012,05,28,00,31,9.30
2012,05,28,00,32,9.30
2012,05,28,00,33,9.20
2012,05,28,00,34,9.20
2012,05,28,00,35,9.20
2012,05,28,00,36,9.20
2012,05,28,00,37,9.20
2012,05,28,00,38,9.20
2012,05,28,00,39,9.10
2012,05,28,00,40,9.10
2012,05,28,00,41,9.10
2012,05,28,00,42,9.10
2012,05,28,00,43,9.10
2012,05,28,00,44,9.10
2012,05,28,00,45,9.10
2012,05,28,00,46,9.10
2012,05,28,00,47,9.00
2012,05,28,00,48,9.00
2012,05,28,00,49,9.00
2012,05,28,00,50,9.00
2012,05,28,00,51,9.00
2012,05,28,00,52,9.00
2012,05,28,00,53,8.90
2012,05,28,00,54,8.90
2012,05,28,00,55,8.90
2012,05,28,00,56,8.90
2012,05,28,00,57,8.90
2012,05,28,00,58,8.90
2012,05,28,00,59,8.90
2012,05,28,01,00,8.90
2012,05,28,01,01,8.90
2012,05,28,01,02,8.90
2012,05,28,01,03,8.80
2012,05,28,01,04,8.90
2012,05,28,01,05,8.80
2012,05,28,01,06,8.80
2012,05,28,01,07,8.80
2012,05,28,01,08,8.80
2012,05,28,01,09,8.80
2012,05,28,01,10,8.80
2012,05,28,01,11,8.70
2012,05,28,01,12,8.70
2012,05,28,01,13,8.70
2012,05,28,01,14,8.70
2012,05,28,01,15,8.70
2012,05,28,01,16,8.70
2012,05,28,01,17,8.70
2012,05,28,01,18,8.70
2012,05,28,01,19,8.70
2012,05,28,01,20,8.70
2012,05,28,01,21,8.60
2012,05,28,01,22,8.60
2012,05,28,01,23,8.60
2012,05,28,01,24,8.60
2012,05,28,01,25,8.60
2012,05,28,01,26,8.60
2012,05,28,01,27,8.60
2012,05,28,01,28,8.60
2012,05,28,01,29,8.60
2012,05,28,01,30,8.50
2012,05,28,01,31,8.50
2012,05,28,01,32,8.50
2012,05,28,01,33,8.50
2012,05,28,01,34,8.50
2012,05,28,01,35,8.50
2012,05,28,01,36,8.40
2012,05,28,01,37,8.40
2012,05,28,01,38,8.40
2012,05,28,01,39,8.40
2012,05,28,01,40,8.40
2012,05,28,01,41,8.40
2012,05,28,01,42,8.40
2012,05,28,01,43,8.30
2012,05,28,01,44,8.30
2012,05,28,01,45,8.30
2012,05,28,01,46,8.30
2012,05,28,01,47,8.30
2012,05,28,01,48,8.30
2012,05,28,01,49,8.30
2012,05,28,01,50,8.30
2012,05,28,01,51,8.30
2012,05,28,01,52,8.30
2012,05,28,01,53,8.30
2012,05,28,01,54,8.30
2012,05,28,01,55,8.30
2012,05,28,01,56,8.30
2012,05,28,01,57,8.30
2012,05,28,01,58,8.30
2012,05,28,01,59,8.20
2012,05,28,02,00,8.20
2012,05,28,02,01,8.20
2012,05,28,02,02,8.20
2012,05,28,02,03,8.20
2012,05,28,02,04,8.20
2012,05,28,02,05,8.20
2012,05,28,02,06,8.20
2012,05,28,02,07,8.20
2012,05,28,02,08,8.20
2012,05,28,02,09,8.10
2012,05,28,02,10,8.20
2012,05,28,02,11,8.10
2012,05,28,02,12,8.10
2012,05,28,02,13,8.10
2012,05,28,02,14,8.10
2012,05,28,02,15,8.10
2012,05,28,02,16,8.10
2012,05,28,02,17,8.10
2012,05,28,02,18,8.10
2012,05,28,02,19,8.10
2012,05,28,02,20,8.10
2012,05,28,02,21,8.00
2012,05,28,02,22,8.00
2012,05,28,02,23,8.00
2012,05,28,02,24,8.00
2012,05,28,02,25,8.00
2012,05,28,02,26,8.00
2012,05,28,02,27,8.00
2012,05,28,02,28,8.00
2012,05,28,02,29,8.00
2012,05,28,02,30,8.00
2012,05,28,02,31,8.00
2012,05,28,02,32,8.00
2012,05,28,02,33,8.00
2012,05,28,02,34,8.00
2012,05,28,02,35,8.00
2012,05,28,02,36,8.00
2012,05,28,02,37,8.00
2012,05,28,02,38,8.00
2012,05,28,02,39,8.00
2012,05,28,02,40,8.00
2012,05,28,02,41,8.00
2012,05,28,02,42,8.00
2012,05,28,02,43,8.00
2012,05,28,02,44,8.00
2012,05,28,02,45,8.00
2012,05,28,02,46,8.00
2012,05,28,02,47,7.90
2012,05,28,02,48,7.90
2012,05,28,02,49,7.90
2012,05,28,02,50,7.90
2012,05,28,02,51,7.90
2012,05,28,02,52,7.90
2012,05,28,02,53,7.90
2012,05,28,02,54,7.90
2012,05,28,02,55,7.90
2012,05,28,02,56,7.90
2012,05,28,02,57,7.90
2012,05,28,02,58,7.90
2012,05,28,02,59,7.90
2012,05,28,03,00,7.90
2012,05,28,03,01,7.90
2012,05,28,03,02,7.90
2012,05,28,03,03,7.90
2012,05,28,03,04,7.90
2012,05,28,03,05,7.90
2012,05,28,03,06,7.90
2012,05,28,03,07,7.90
2012,05,28,03,08,7.90
2012,05,28,03,09,7.90
2012,05,28,03,10,7.90
2012,05,28,03,11,7.90
2012,05,28,03,12,7.90
2012,05,28,03,13,8.00
2012,05,28,03,14,7.90
2012,05,28,03,15,7.90
2012,05,28,03,16,7.90
2012,05,28,03,17,7.90
2012,05,28,03,18,7.90
2012,05,28,03,19,7.90
2012,05,28,03,20,7.90
2012,05,28,03,21,7.90
2012,05,28,03,22,7.90
2012,05,28,03,23,7.90
2012,05,28,03,24,7.90
2012,05,28,03,25,7.90
2012,05,28,03,26,7.90
2012,05,28,03,27,7.90
2012,05,28,03,28,7.80
2012,05,28,03,29,7.80
2012,05,28,03,30,7.80
2012,05,28,03,31,7.80
2012,05,28,03,32,7.80
2012,05,28,03,33,7.80
2012,05,28,03,34,7.80
2012,05,28,03,35,7.80
2012,05,28,03,36,7.80
2012,05,28,03,37,7.80
2012,05,28,03,38,7.80
2012,05,28,03,39,7.80
2012,05,28,03,40,7.80
2012,05,28,03,41,7.70
2012,05,28,03,42,7.70
2012,05,28,03,43,7.70
2012,05,28,03,44,7.70
2012,05,28,03,45,7.70
2012,05,28,03,46,7.70
2012,05,28,03,47,7.70
2012,05,28,03,48,7.70
2012,05,28,03,49,7.70
2012,05,28,03,50,7.70
2012,05,28,03,51,7.70
2012,05,28,03,52,7.70
2012,05,28,03,53,7.70
2012,05,28,03,54,7.70
2012,05,28,03,55,7.70
2012,05,28,03,56,7.60
2012,05,28,03,57,7.60
2012,05,28,03,58,7.60
2012,05,28,03,59,7.60
2012,05,28,04,00,7.60
2012,05,28,04,01,7.60
2012,05,28,04,02,7.60
2012,05,28,04,03,7.60
2012,05,28,04,04,7.60
2012,05,28,04,05,7.60
2012,05,28,04,06,7.60
2012,05,28,04,07,7.60
2012,05,28,04,08,7.60
2012,05,28,04,09,7.60
2012,05,28,04,10,7.60
2012,05,28,04,11,7.60
2012,05,28,04,12,7.60
2012,05,28,04,13,7.60
2012,05,28,04,14,7.50
2012,05,28,04,15,7.50
2012,05,28,04,16,7.50
2012,05,28,04,17,7.50
2012,05,28,04,18,7.50
2012,05,28,04,19,7.50
2012,05,28,04,20,7.50
2012,05,28,04,21,7.50
2012,05,28,04,22,7.50
2012,05,28,04,23,7.50
2012,05,28,04,24,7.50
2012,05,28,04,25,7.50
2012,05,28,04,26,7.50
2012,05,28,04,27,7.50
2012,05,28,04,28,7.50
2012,05,28,04,29,7.50
2012,05,28,04,30,7.40
2012,05,28,04,31,7.40
2012,05,28,04,32,7.40
2012,05,28,04,33,7.40
2012,05,28,04,34,7.40
2012,05,28,04,35,7.40
2012,05,28,04,36,7.40
2012,05,28,04,37,7.40
2012,05,28,04,38,7.40
2012,05,28,04,39,7.40
2012,05,28,04,40,7.40
2012,05,28,04,41,7.40
2012,05,28,04,42,7.40
2012,05,28,04,43,7.40
2012,05,28,04,44,7.40
2012,05,28,04,45,7.40
2012,05,28,04,46,7.40
2012,05,28,04,47,7.40
2012,05,28,04,48,7.40
2012,05,28,04,49,7.40
2012,05,28,04,50,7.40
2012,05,28,04,51,7.40
2012,05,28,04,52,7.40
2012,05,28,04,53,7.40
2012,05,28,04,54,7.40
2012,05,28,04,55,7.40
2012,05,28,04,56,7.40
2012,05,28,04,57,7.40
2012,05,28,04,58,7.40
2012,05,28,04,59,7.40
2012,05,28,05,00,7.40
2012,05,28,05,01,7.40
2012,05,28,05,02,7.40
2012,05,28,05,03,7.40
2012,05,28,05,04,7.40
2012,05,28,05,05,7.40
2012,05,28,05,06,7.40
2012,05,28,05,07,7.40
2012,05,28,05,08,7.40
2012,05,28,05,09,7.40
2012,05,28,05,10,7.30
2012,05,28,05,11,7.30
2012,05,28,05,12,7.30
2012,05,28,05,13,7.30
2012,05,28,05,14,7.30
2012,05,28,05,15,7.30
2012,05,28,05,16,7.30
2012,05,28,05,17,7.30
2012,05,28,05,18,7.30
2012,05,28,05,19,7.30
2012,05,28,05,20,7.30
2012,05,28,05,21,7.30
2012,05,28,05,22,7.30
2012,05,28,05,23,7.30
2012,05,28,05,24,7.30
2012,05,28,05,25,7.30
2012,05,28,05,26,7.30
2012,05,28,05,27,7.30
2012,05,28,05,28,7.30
2012,05,28,05,29,7.30
2012,05,28,05,30,7.30
2012,05,28,05,31,7.30
2012,05,28,05,32,7.30
2012,05,28,05,33,7.30
2012,05,28,05,34,7.30
2012,05,28,05,35,7.30
2012,05,28,05,36,7.30
2012,05,28,05,37,7.30
2012,05,28,05,38,7.30
2012,05,28,05,39,7.30
2012,05,28,05,40,7.30
2012,05,28,05,41,7.30
2012,05,28,05,42,7.30
2012,05,28,05,43,7.30
2012,05,28,05,44,7.30
2012,05,28,05,45,7.30
2012,05,28,05,46,7.30
2012,05,28,05,47,7.30
2012,05,28,05,48,7.30
2012,05,28,05,49,7.30
2012,05,28,05,50,7.30
2012,05,28,05,51,7.30
2012,05,28,05,52,7.30
2012,05,28,05,53,7.30
2012,05,28,05,54,7.30
2012,05,28,05,55,7.30
2012,05,28,05,56,7.40
2012,05,28,05,57,7.40
2012,05,28,05,58,7.40
2012,05,28,05,59,7.40
2012,05,28,06,00,7.40
2012,05,28,06,01,7.40
2012,05,28,06,02,7.40
2012,05,28,06,03,7.40
2012,05,28,06,04,7.40
2012,05,28,06,05,7.40
2012,05,28,06,06,7.40
2012,05,28,06,07,7.40
2012,05,28,06,08,7.40
2012,05,28,06,09,7.40
2012,05,28,06,10,7.40
2012,05,28,06,11,7.40
2012,05,28,06,12,7.50
2012,05,28,06,13,7.50
2012,05,28,06,14,7.50
2012,05,28,06,15,7.40
2012,05,28,06,16,7.40
2012,05,28,06,17,7.40
2012,05,28,06,18,7.40
2012,05,28,06,19,7.40
2012,05,28,06,20,7.40
2012,05,28,06,21,7.40
2012,05,28,06,22,7.40
2012,05,28,06,23,7.40
2012,05,28,06,24,7.40
2012,05,28,06,25,7.40
2012,05,28,06,26,7.40
2012,05,28,06,27,7.40
2012,05,28,06,28,7.40
2012,05,28,06,29,7.40
2012,05,28,06,30,7.40
2012,05,28,06,31,7.40
2012,05,28,06,32,7.40
2012,05,28,06,33,7.40
2012,05,28,06,34,7.40
2012,05,28,06,35,7.40
2012,05,28,06,36,7.40
2012,05,28,06,37,7.40
2012,05,28,06,38,7.50
2012,05,28,06,39,7.50
2012,05,28,06,40,7.50
2012,05,28,06,41,7.50
2012,05,28,06,42,7.50
2012,05,28,06,43,7.50
2012,05,28,06,44,7.50
2012,05,28,06,45,7.50
2012,05,28,06,46,7.50
2012,05,28,06,47,7.60
2012,05,28,06,48,7.60
2012,05,28,06,49,7.60
2012,05,28,06,50,7.60
2012,05,28,06,51,7.60
2012,05,28,06,52,7.60
2012,05,28,06,53,7.60
2012,05,28,06,54,7.60
2012,05,28,06,55,7.60
2012,05,28,06,56,7.60
2012,05,28,06,57,7.60
2012,05,28,06,58,7.60
2012,05,28,06,59,7.70
2012,05,28,07,00,7.70
2012,05,28,07,01,7.70
2012,05,28,07,02,7.70
2012,05,28,07,03,7.70
2012,05,28,07,04,7.70
2012,05,28,07,05,7.70
2012,05,28,07,06,7.70
2012,05,28,07,07,7.70
2012,05,28,07,08,7.80
2012,05,28,07,09,7.80
2012,05,28,07,10,7.80
2012,05,28,07,11,7.80
2012,05,28,07,12,7.80
2012,05,28,07,13,7.90
2012,05,28,07,14,7.90
2012,05,28,07,15,7.90
2012,05,28,07,16,7.90
2012,05,28,07,17,7.90
2012,05,28,07,18,7.90
2012,05,28,07,19,8.00
2012,05,28,07,20,8.00
2012,05,28,07,21,8.10
2012,05,28,07,22,8.10
2012,05,28,07,23,8.10
2012,05,28,07,24,8.10
2012,05,28,07,25,8.10
2012,05,28,07,26,8.10
2012,05,28,07,27,8.20
2012,05,28,07,28,8.20
2012,05,28,07,29,8.20
2012,05,28,07,30,8.20
2012,05,28,07,31,8.20
2012,05,28,07,32,8.20
2012,05,28,07,33,8.20
2012,05,28,07,34,8.20
2012,05,28,07,35,8.20
2012,05,28,07,36,8.20
2012,05,28,07,37,8.20
2012,05,28,07,38,8.20
2012,05,28,07,39,8.20
2012,05,28,07,40,8.20
2012,05,28,07,41,8.20
2012,05,28,07,42,8.20
2012,05,28,07,43,8.20
2012,05,28,07,44,8.30
2012,05,28,07,45,8.30
2012,05,28,07,46,8.30
2012,05,28,07,47,8.30
2012,05,28,07,48,8.30
2012,05,28,07,49,8.30
2012,05,28,07,50,8.30
2012,05,28,07,51,8.40
2012,05,28,07,52,8.40
2012,05,28,07,53,8.40
2012,05,28,07,54,8.40
2012,05,28,07,55,8.40
2012,05,28,07,56,8.40
2012,05,28,07,57,8.40
2012,05,28,07,58,8.40
2012,05,28,07,59,8.40
2012,05,28,08,00,8.40
2012,05,28,08,01,8.40
2012,05,28,08,02,8.40
2012,05,28,08,03,8.40
2012,05,28,08,04,8.40
2012,05,28,08,05,8.40
2012,05,28,08,06,8.50
2012,05,28,08,07,8.50
2012,05,28,08,08,8.50
2012,05,28,08,09,8.50
2012,05,28,08,10,8.50
2012,05,28,08,11,8.60
2012,05,28,08,12,8.60
2012,05,28,08,13,8.60
2012,05,28,08,14,8.60
2012,05,28,08,15,8.60
2012,05,28,08,16,8.60
2012,05,28,08,17,8.60
2012,05,28,08,18,8.60
2012,05,28,08,19,8.60
2012,05,28,08,20,8.60
2012,05,28,08,21,8.60
2012,05,28,08,22,8.60
2012,05,28,08,23,8.60
2012,05,28,08,24,8.60
2012,05,28,08,25,8.60
2012,05,28,08,26,8.60
2012,05,28,08,27,8.60
2012,05,28,08,28,8.60
2012,05,28,08,29,8.60
2012,05,28,08,30,8.70
2012,05,28,08,31,8.70
2012,05,28,08,32,8.70
2012,05,28,08,33,8.80
2012,05,28,08,34,8.80
2012,05,28,08,35,8.80
2012,05,28,08,36,8.90
2012,05,28,08,37,8.90
2012,05,28,08,38,8.90
2012,05,28,08,39,8.90
2012,05,28,08,40,8.90
2012,05,28,08,41,8.90
2012,05,28,08,42,9.00
2012,05,28,08,43,9.00
2012,05,28,08,44,9.00
2012,05,28,08,45,9.00
2012,05,28,08,46,9.10
2012,05,28,08,47,9.00
2012,05,28,08,48,9.00
2012,05,28,08,49,9.00
2012,05,28,08,50,9.00
2012,05,28,08,51,9.00
2012,05,28,08,52,9.00
2012,05,28,08,53,9.00
2012,05,28,08,54,9.00
2012,05,28,08,55,9.00
2012,05,28,08,56,9.00
2012,05,28,08,57,9.00
2012,05,28,08,58,9.00
2012,05,28,08,59,9.10
2012,05,28,09,00,9.10
2012,05,28,09,01,9.10
2012,05,28,09,02,9.10
2012,05,28,09,03,9.10
2012,05,28,09,04,9.10
2012,05,28,09,05,9.20
2012,05,28,09,06,9.20
2012,05,28,09,07,9.20
2012,05,28,09,08,9.20
2012,05,28,09,09,9.20
2012,05,28,09,10,9.20
2012,05,28,09,11,9.20
2012,05,28,09,12,9.20
2012,05,28,09,13,9.20
2012,05,28,09,14,9.20
2012,05,28,09,15,9.20
2012,05,28,09,16,9.20
2012,05,28,09,17,9.20
2012,05,28,09,18,9.20
2012,05,28,09,19,9.20
2012,05,28,09,20,9.20
2012,05,28,09,21,9.20
2012,05,28,09,22,9.20
2012,05,28,09,23,9.20
2012,05,28,09,24,9.20
2012,05,28,09,25,9.20
2012,05,28,09,26,9.20
2012,05,28,09,27,9.20
2012,05,28,09,28,9.20
2012,05,28,09,29,9.20
2012,05,28,09,30,9.20
2012,05,28,09,31,9.30
2012,05,28,09,32,9.30
2012,05,28,09,33,9.30
2012,05,28,09,34,9.30
2012,05,28,09,35,9.30
2012,05,28,09,36,9.40
2012,05,28,09,37,9.50
2012,05,28,09,38,9.50
2012,05,28,09,39,9.50
2012,05,28,09,40,9.60
2012,05,28,09,41,9.60
2012,05,28,09,42,9.60
2012,05,28,09,43,9.70
2012,05,28,09,44,9.70
2012,05,28,09,45,9.80
2012,05,28,09,46,9.90
2012,05,28,09,47,9.90
2012,05,28,09,48,9.90
2012,05,28,09,49,9.90
2012,05,28,09,50,9.90
2012,05,28,09,51,9.90
2012,05,28,09,52,9.90
2012,05,28,09,53,9.80
2012,05,28,09,54,9.80
2012,05,28,09,55,9.80
2012,05,28,09,56,9.80
2012,05,28,09,57,9.70
2012,05,28,09,58,9.70
2012,05,28,09,59,9.70
2012,05,28,10,00,9.70
2012,05,28,10,01,9.70
2012,05,28,10,02,9.80
2012,05,28,10,03,9.80
2012,05,28,10,04,9.80
2012,05,28,10,05,9.80
2012,05,28,10,06,9.80
2012,05,28,10,07,9.80
2012,05,28,10,08,9.80
2012,05,28,10,09,9.80
2012,05,28,10,10,9.80
2012,05,28,10,11,9.80
2012,05,28,10,12,9.80
2012,05,28,10,13,9.80
2012,05,28,10,14,9.80
2012,05,28,10,15,9.80
2012,05,28,10,16,9.80
2012,05,28,10,17,9.90
2012,05,28,10,18,9.90
2012,05,28,10,19,10.00
2012,05,28,10,20,10.00
2012,05,28,10,21,10.00
2012,05,28,10,22,10.00
2012,05,28,10,23,10.00
2012,05,28,10,24,10.00
2012,05,28,10,25,10.00
2012,05,28,10,26,9.90
2012,05,28,10,27,10.00
2012,05,28,10,28,10.00
2012,05,28,10,29,10.00
2012,05,28,10,30,10.00
2012,05,28,10,31,10.00
2012,05,28,10,32,10.00
2012,05,28,10,33,10.00
2012,05,28,10,34,10.10
2012,05,28,10,35,10.20
2012,05,28,10,36,10.20
2012,05,28,10,37,10.30
2012,05,28,10,38,10.30
2012,05,28,10,39,10.30
2012,05,28,10,40,10.40
2012,05,28,10,41,10.40
2012,05,28,10,42,10.40
2012,05,28,10,43,10.40
2012,05,28,10,44,10.50
2012,05,28,10,45,10.50
2012,05,28,10,46,10.60
2012,05,28,10,47,10.60
2012,05,28,10,48,10.70
2012,05,28,10,49,10.70
2012,05,28,10,50,10.60
2012,05,28,10,51,10.60
2012,05,28,10,52,10.60
2012,05,28,10,53,10.60
2012,05,28,10,54,10.60
2012,05,28,10,55,10.60
2012,05,28,10,56,10.60
2012,05,28,10,57,10.60
2012,05,28,10,58,10.60
2012,05,28,10,59,10.60
2012,05,28,11,00,10.60
2012,05,28,11,01,10.60
2012,05,28,11,02,10.60
2012,05,28,11,03,10.70
2012,05,28,11,04,10.70
2012,05,28,11,05,10.70
2012,05,28,11,06,10.70
2012,05,28,11,07,10.70
2012,05,28,11,08,10.70
2012,05,28,11,09,10.70
2012,05,28,11,10,10.70
2012,05,28,11,11,10.70
2012,05,28,11,12,10.70
2012,05,28,11,13,10.70
2012,05,28,11,14,10.70
2012,05,28,11,15,10.70
2012,05,28,11,16,10.70
2012,05,28,11,17,10.70
2012,05,28,11,18,10.70
2012,05,28,11,19,10.70
2012,05,28,11,20,10.60
2012,05,28,11,21,10.70
2012,05,28,11,22,10.70
2012,05,28,11,23,10.70
2012,05,28,11,24,10.60
2012,05,28,11,25,10.60
2012,05,28,11,26,10.70
2012,05,28,11,27,10.60
2012,05,28,11,28,10.60
2012,05,28,11,29,10.60
2012,05,28,11,30,10.60
2012,05,28,11,31,10.60
2012,05,28,11,32,10.60
2012,05,28,11,33,10.60
2012,05,28,11,34,10.60
2012,05,28,11,35,10.60
2012,05,28,11,36,10.60
2012,05,28,11,37,10.60
2012,05,28,11,38,10.60
2012,05,28,11,39,10.60
2012,05,28,11,40,10.60
2012,05,28,11,41,10.60
2012,05,28,11,42,10.60
2012,05,28,11,43,10.60
2012,05,28,11,44,10.60
2012,05,28,11,45,10.60
2012,05,28,11,46,10.60
2012,05,28,11,47,10.60
2012,05,28,11,48,10.60
2012,05,28,11,49,10.60
2012,05,28,11,50,10.60
2012,05,28,11,51,10.60
2012,05,28,11,52,10.70
2012,05,28,11,53,10.70
2012,05,28,11,54,10.70
2012,05,28,11,55,10.70
2012,05,28,11,56,10.70
2012,05,28,11,57,10.80
2012,05,28,11,58,10.80
2012,05,28,11,59,10.80
2012,05,28,12,00,10.80
2012,05,28,12,01,10.90
2012,05,28,12,02,10.90
2012,05,28,12,03,11.00
2012,05,28,12,04,11.00
2012,05,28,12,05,11.10
2012,05,28,12,06,11.10
2012,05,28,12,07,11.10
2012,05,28,12,08,11.10
2012,05,28,12,09,11.10
2012,05,28,12,10,11.10
2012,05,28,12,11,11.10
2012,05,28,12,12,11.10
2012,05,28,12,13,11.20
2012,05,28,12,14,11.20
2012,05,28,12,15,11.20
2012,05,28,12,16,11.30
2012,05,28,12,17,11.30
2012,05,28,12,18,11.30
2012,05,28,12,19,11.30
2012,05,28,12,20,11.30
2012,05,28,12,21,11.20
2012,05,28,12,22,11.20
2012,05,28,12,23,11.20
2012,05,28,12,24,11.20
2012,05,28,12,25,11.20
2012,05,28,12,26,11.20
2012,05,28,12,27,11.20
2012,05,28,12,28,11.20
2012,05,28,12,29,11.20
2012,05,28,12,30,11.20
2012,05,28,12,31,11.20
2012,05,28,12,32,11.20
2012,05,28,12,33,11.30
2012,05,28,12,34,11.30
2012,05,28,12,35,11.40
2012,05,28,12,36,11.40
2012,05,28,12,37,11.40
2012,05,28,12,38,11.40
2012,05,28,12,39,11.40
2012,05,28,12,40,11.40
2012,05,28,12,41,11.50
2012,05,28,12,42,11.60
2012,05,28,12,43,11.70
2012,05,28,12,44,11.70
2012,05,28,12,45,11.80
2012,05,28,12,46,11.80
2012,05,28,12,47,11.90
2012,05,28,12,48,11.90
2012,05,28,12,49,11.90
2012,05,28,12,50,12.00
2012,05,28,12,51,12.10
2012,05,28,12,52,12.10
2012,05,28,12,53,12.20
2012,05,28,12,54,12.20
2012,05,28,12,55,12.20
2012,05,28,12,56,12.10
2012,05,28,12,57,12.10
2012,05,28,12,58,12.00
2012,05,28,12,59,11.90
2012,05,28,13,00,11.80
2012,05,28,13,01,11.80
2012,05,28,13,02,11.80
2012,05,28,13,03,11.80
2012,05,28,13,04,11.80
2012,05,28,13,05,11.80
2012,05,28,13,06,11.90
2012,05,28,13,07,11.90
2012,05,28,13,08,12.00
2012,05,28,13,09,12.10
2012,05,28,13,10,12.10
2012,05,28,13,11,12.10
2012,05,28,13,12,12.20
2012,05,28,13,13,12.20
2012,05,28,13,14,12.20
2012,05,28,13,15,12.20
2012,05,28,13,16,12.20
2012,05,28,13,17,12.20
2012,05,28,13,18,12.10
2012,05,28,13,19,12.00
2012,05,28,13,20,11.90
2012,05,28,13,21,11.80
2012,05,28,13,22,11.80
2012,05,28,13,23,11.70
2012,05,28,13,24,11.70
2012,05,28,13,25,11.60
2012,05,28,13,26,11.60
2012,05,28,13,27,11.50
2012,05,28,13,28,11.40
2012,05,28,13,29,11.40
2012,05,28,13,30,11.40
2012,05,28,13,31,11.40
2012,05,28,13,32,11.30
2012,05,28,13,33,11.40
2012,05,28,13,34,11.40
2012,05,28,13,35,11.40
2012,05,28,13,36,11.40
2012,05,28,13,37,11.50
2012,05,28,13,38,11.50
2012,05,28,13,39,11.60
2012,05,28,13,40,11.60
2012,05,28,13,41,11.50
2012,05,28,13,42,11.50
2012,05,28,13,43,11.40
2012,05,28,13,44,11.40
2012,05,28,13,45,11.40
2012,05,28,13,46,11.40
2012,05,28,13,47,11.40
2012,05,28,13,48,11.30
2012,05,28,13,49,11.30
2012,05,28,13,50,11.30
2012,05,28,13,51,11.40
2012,05,28,13,52,11.40
2012,05,28,13,53,11.40
2012,05,28,13,54,11.40
2012,05,28,13,55,11.50
2012,05,28,13,56,11.50
2012,05,28,13,57,11.60
2012,05,28,13,58,11.50
2012,05,28,13,59,11.60
2012,05,28,14,00,11.70
2012,05,28,14,01,11.80
2012,05,28,14,02,11.80
2012,05,28,14,03,11.90
2012,05,28,14,04,11.80
2012,05,28,14,05,11.80
2012,05,28,14,06,11.90
2012,05,28,14,07,11.90
2012,05,28,14,08,11.90
2012,05,28,14,09,11.90
2012,05,28,14,10,11.90
2012,05,28,14,11,11.90
2012,05,28,14,12,11.90
2012,05,28,14,13,11.90
2012,05,28,14,14,11.90
2012,05,28,14,15,12.00
2012,05,28,14,16,12.00
2012,05,28,14,17,12.10
2012,05,28,14,18,12.20
2012,05,28,14,19,12.30
2012,05,28,14,20,12.40
2012,05,28,14,21,12.40
2012,05,28,14,22,12.40
2012,05,28,14,23,12.40
2012,05,28,14,24,12.40
2012,05,28,14,25,12.30
2012,05,28,14,26,12.30
2012,05,28,14,27,12.30
2012,05,28,14,28,12.30
2012,05,28,14,29,12.40
2012,05,28,14,30,12.50
2012,05,28,14,31,12.60
2012,05,28,14,32,12.70
2012,05,28,14,33,12.80
2012,05,28,14,34,12.80
2012,05,28,14,35,12.70
2012,05,28,14,36,12.70
2012,05,28,14,37,12.70
2012,05,28,14,38,12.70
2012,05,28,14,39,12.70
2012,05,28,14,40,12.70
2012,05,28,14,41,12.60
2012,05,28,14,42,12.50
2012,05,28,14,43,12.40
2012,05,28,14,44,12.40
2012,05,28,14,45,12.40
2012,05,28,14,46,12.60
2012,05,28,14,47,12.60
2012,05,28,14,48,12.70
2012,05,28,14,49,12.60
2012,05,28,14,50,12.50
2012,05,28,14,51,12.50
2012,05,28,14,52,12.50
2012,05,28,14,53,12.50
2012,05,28,14,54,12.40
2012,05,28,14,55,12.30
2012,05,28,14,56,12.30
2012,05,28,14,57,12.30
2012,05,28,14,58,12.30
2012,05,28,14,59,12.40
2012,05,28,15,00,12.40
2012,05,28,15,01,12.40
2012,05,28,15,02,12.40
2012,05,28,15,03,12.40
2012,05,28,15,04,12.30
2012,05,28,15,05,12.30
2012,05,28,15,06,12.30
2012,05,28,15,07,12.30
2012,05,28,15,08,12.20
2012,05,28,15,09,12.20
2012,05,28,15,10,12.20
2012,05,28,15,11,12.20
2012,05,28,15,12,12.20
2012,05,28,15,13,12.10
2012,05,28,15,14,12.00
2012,05,28,15,15,12.00
2012,05,28,15,16,12.00
2012,05,28,15,17,11.90
2012,05,28,15,18,11.90
2012,05,28,15,19,11.90
2012,05,28,15,20,11.80
2012,05,28,15,21,11.70
2012,05,28,15,22,11.60
2012,05,28,15,23,11.50
2012,05,28,15,24,11.50
2012,05,28,15,25,11.40
2012,05,28,15,26,11.30
2012,05,28,15,27,11.30
2012,05,28,15,28,11.20
2012,05,28,15,29,11.10
2012,05,28,15,30,11.10
2012,05,28,15,31,11.10
2012,05,28,15,32,11.20
2012,05,28,15,33,11.20
2012,05,28,15,34,11.20
2012,05,28,15,35,11.20
2012,05,28,15,36,11.20
2012,05,28,15,37,11.20
2012,05,28,15,38,11.20
2012,05,28,15,39,11.20
2012,05,28,15,40,11.20
2012,05,28,15,41,11.20
2012,05,28,15,42,11.20
2012,05,28,15,43,11.10
2012,05,28,15,44,11.10
2012,05,28,15,45,11.10
2012,05,28,15,46,11.00
2012,05,28,15,47,11.00
2012,05,28,15,48,11.00
2012,05,28,15,49,11.00
2012,05,28,15,50,10.90
2012,05,28,15,51,10.90
2012,05,28,15,52,10.90
2012,05,28,15,53,10.90
2012,05,28,15,54,10.80
2012,05,28,15,55,10.70
2012,05,28,15,56,10.70
2012,05,28,15,57,10.60
2012,05,28,15,58,10.60
2012,05,28,15,59,10.60
2012,05,28,16,00,10.60
2012,05,28,16,01,10.60
2012,05,28,16,02,10.60
2012,05,28,16,03,10.70
2012,05,28,16,04,10.70
2012,05,28,16,05,10.70
2012,05,28,16,06,10.70
2012,05,28,16,07,10.70
2012,05,28,16,08,10.70
2012,05,28,16,09,10.80
2012,05,28,16,10,10.80
2012,05,28,16,11,10.80
2012,05,28,16,12,10.80
2012,05,28,16,13,10.90
2012,05,28,16,14,10.90
2012,05,28,16,15,10.90
2012,05,28,16,16,10.90
2012,05,28,16,17,10.90
2012,05,28,16,18,10.90
2012,05,28,16,19,10.90
2012,05,28,16,20,10.90
2012,05,28,16,21,11.00
2012,05,28,16,22,11.00
2012,05,28,16,23,11.00
2012,05,28,16,24,11.00
2012,05,28,16,25,11.00
2012,05,28,16,26,11.00
2012,05,28,16,27,11.00
2012,05,28,16,28,11.00
2012,05,28,16,29,11.00
2012,05,28,16,30,10.90
2012,05,28,16,31,10.90
2012,05,28,16,32,10.90
2012,05,28,16,33,10.90
2012,05,28,16,34,10.90
2012,05,28,16,35,10.80
2012,05,28,16,36,10.80
2012,05,28,16,37,10.70
2012,05,28,16,38,10.70
2012,05,28,16,39,10.70
2012,05,28,16,40,10.70
2012,05,28,16,41,10.70
2012,05,28,16,42,10.70
2012,05,28,16,43,10.70
2012,05,28,16,44,10.70
2012,05,28,16,45,10.70
2012,05,28,16,46,10.70
2012,05,28,16,47,10.80
2012,05,28,16,48,10.80
2012,05,28,16,49,10.80
2012,05,28,16,50,10.90
2012,05,28,16,51,10.90
2012,05,28,16,52,10.90
2012,05,28,16,53,11.00
2012,05,28,16,54,11.10
2012,05,28,16,55,11.10
2012,05,28,16,56,11.10
2012,05,28,16,57,11.10
2012,05,28,16,58,11.10
2012,05,28,16,59,11.00
2012,05,28,17,00,11.00
2012,05,28,17,01,10.90
2012,05,28,17,02,10.90
2012,05,28,17,03,10.90
2012,05,28,17,04,10.90
2012,05,28,17,05,10.90
2012,05,28,17,06,10.90
2012,05,28,17,07,10.90
2012,05,28,17,08,10.80
2012,05,28,17,09,10.90
2012,05,28,17,10,10.90
2012,05,28,17,11,10.90
2012,05,28,17,12,10.90
2012,05,28,17,13,10.90
2012,05,28,17,14,11.00
2012,05,28,17,15,11.00
2012,05,28,17,16,11.00
2012,05,28,17,17,11.10
2012,05,28,17,18,11.10
2012,05,28,17,19,11.10
2012,05,28,17,20,11.10
2012,05,28,17,21,11.10
2012,05,28,17,22,11.10
2012,05,28,17,23,11.10
2012,05,28,17,24,11.10
2012,05,28,17,25,11.10
2012,05,28,17,26,11.10
2012,05,28,17,27,11.10
2012,05,28,17,28,11.10
2012,05,28,17,29,11.10
2012,05,28,17,30,11.10
2012,05,28,17,31,11.00
2012,05,28,17,32,11.00
2012,05,28,17,33,11.00
2012,05,28,17,34,11.00
2012,05,28,17,35,11.10
2012,05,28,17,36,11.10
2012,05,28,17,37,11.10
2012,05,28,17,38,11.20
2012,05,28,17,39,11.20
2012,05,28,17,40,11.20
2012,05,28,17,41,11.20
2012,05,28,17,42,11.20
2012,05,28,17,43,11.10
2012,05,28,17,44,11.10
2012,05,28,17,45,11.10
2012,05,28,17,46,11.20